When you browse on this site, cookies collect data to enhance your experience and personalize the content and advertising you see.
Visit our Privacy Policy to learn more. By continuing to use the site, you agree to this use of cookies and data.
  • In Schweiz
  • Länderverzeichnis
  • Für 7 Tage
  • Wassertemperatur
  • Satellitenkarten
  • Wetterkarte
  • Widgets
  • user-avatar
    Anmelden

    Stündliche Wetter El Salvador

    Heute, 24 Januar, Donnerstag

    Zeit Temperatur Niederschläge Wind Luftdruck Luftfeuchtigkeit
    00:00 +26°C° 1.1 mm 3 m/S 756 mmHg 90%
    01:00 +26°C° 0.9 mm 3 m/S 756 mmHg 90%
    02:00 +26°C° 0.9 mm 3 m/S 756 mmHg 91%
    03:00 +25°C° 0.9 mm 2 m/S 756 mmHg 91%
    04:00 +25°C° 0.7 mm 2 m/S 756 mmHg 92%
    05:00 +25°C° 0.7 mm 2 m/S 756 mmHg 92%
    06:00 +25°C° 0.7 mm 2 m/S 756 mmHg 93%
    07:00 +26°C° 1 mm 1 m/S 757 mmHg 89%
    08:00 +27°C° 1 mm 1 m/S 757 mmHg 86%
    09:00 +27°C° 1 mm 1 m/S 757 mmHg 83%
    10:00 +29°C° 0.2 mm 1 m/S 757 mmHg 74%
    11:00 +31°C° 0.2 mm 2 m/S 757 mmHg 64%
    12:00 +34°C° 0.2 mm 2 m/S 757 mmHg 55%
    13:00 +34°C° 0 mm 3 m/S 756 mmHg 56%
    14:00 +34°C° 0 mm 4 m/S 755 mmHg 57%
    15:00 +34°C° 0 mm 5 m/S 755 mmHg 57%
    16:00 +32°C° 0 mm 5 m/S 755 mmHg 63%
    17:00 +30°C° 0 mm 5 m/S 755 mmHg 68%
    18:00 +29°C° 0 mm 5 m/S 755 mmHg 73%
    19:00 +29°C° 0 mm 5 m/S 756 mmHg 76%
    20:00 +28°C° 0 mm 4 m/S 756 mmHg 78%
    21:00 +28°C° 0 mm 4 m/S 757 mmHg 81%
    22:00 +27°C° 0 mm 4 m/S 757 mmHg 82%
    23:00 +27°C° 0 mm 4 m/S 757 mmHg 83%

    Morgen, 25 Januar, Freitag

    Zeit Temperatur Niederschläge Wind Luftdruck Luftfeuchtigkeit
    00:00 +27°C° 0 mm 3 m/S 757 mmHg 84%
    01:00 +26°C° 0 mm 3 m/S 756 mmHg 85%
    02:00 +26°C° 0 mm 3 m/S 756 mmHg 86%
    03:00 +26°C° 0 mm 3 m/S 755 mmHg 86%
    04:00 +26°C° 0 mm 3 m/S 756 mmHg 86%
    05:00 +26°C° 0 mm 3 m/S 756 mmHg 85%
    06:00 +26°C° 0 mm 2 m/S 756 mmHg 85%
    07:00 +28°C° 0 mm 2 m/S 757 mmHg 76%
    08:00 +29°C° 0 mm 2 m/S 757 mmHg 67%
    09:00 +31°C° 0 mm 3 m/S 757 mmHg 59%
    10:00 +33°C° 0.1 mm 3 m/S 757 mmHg 57%
    11:00 +33°C° 0.1 mm 3 m/S 757 mmHg 56%
    12:00 +34°C° 0.1 mm 4 m/S 756 mmHg 55%
    13:00 +34°C° 0 mm 4 m/S 756 mmHg 55%
    14:00 +34°C° 0 mm 4 m/S 755 mmHg 55%
    15:00 +34°C° 0 mm 5 m/S 754 mmHg 55%
    16:00 +32°C° 0 mm 4 m/S 754 mmHg 61%
    17:00 +30°C° 0 mm 4 m/S 755 mmHg 67%
    18:00 +29°C° 0 mm 4 m/S 755 mmHg 73%
    19:00 +28°C° 0.2 mm 4 m/S 755 mmHg 77%
    20:00 +28°C° 0.2 mm 4 m/S 756 mmHg 81%
    21:00 +27°C° 0.2 mm 4 m/S 757 mmHg 85%
    22:00 +27°C° 0.1 mm 4 m/S 757 mmHg 85%
    23:00 +27°C° 0.1 mm 4 m/S 757 mmHg 86%

    übermorgen, 26 Januar, Samstag

    Zeit Temperatur Niederschläge Wind Luftdruck Luftfeuchtigkeit
    00:00 +27°C° 0.1 mm 4 m/S 757 mmHg 87%
    01:00 +27°C° 0 mm 4 m/S 756 mmHg 87%
    02:00 +26°C° 0 mm 4 m/S 756 mmHg 87%
    03:00 +26°C° 0 mm 4 m/S 755 mmHg 87%
    04:00 +26°C° 0 mm 3 m/S 756 mmHg 86%
    05:00 +26°C° 0 mm 3 m/S 756 mmHg 86%
    06:00 +26°C° 0 mm 3 m/S 756 mmHg 85%
    07:00 +28°C° 0 mm 3 m/S 757 mmHg 76%
    08:00 +29°C° 0 mm 3 m/S 757 mmHg 68%
    09:00 +32°C° 0 mm 4 m/S 758 mmHg 59%
    10:00 +33°C° 0 mm 4 m/S 757 mmHg 55%
    11:00 +34°C° 0 mm 4 m/S 757 mmHg 51%
    12:00 +35°C° 0 mm 4 m/S 757 mmHg 46%
    13:00 +34°C° 0 mm 5 m/S 756 mmHg 47%
    14:00 +34°C° 0 mm 5 m/S 755 mmHg 48%
    15:00 +34°C° 0 mm 6 m/S 755 mmHg 48%
    16:00 +33°C° 0 mm 5 m/S 755 mmHg 55%
    17:00 +30°C° 0 mm 5 m/S 755 mmHg 61%
    18:00 +29°C° 0 mm 5 m/S 755 mmHg 67%
    19:00 +29°C° 0 mm 5 m/S 756 mmHg 72%
    20:00 +28°C° 0 mm 5 m/S 757 mmHg 76%
    21:00 +28°C° 0 mm 5 m/S 757 mmHg 80%
    22:00 +27°C° 0.1 mm 5 m/S 757 mmHg 82%
    23:00 +27°C° 0.1 mm 5 m/S 757 mmHg 84%

    27 Januar, Sonntag

    Zeit Temperatur Niederschläge Wind Luftdruck Luftfeuchtigkeit
    00:00 +27°C° 0.1 mm 4 m/S 757 mmHg 86%
    01:00 +27°C° 0 mm 4 m/S 757 mmHg 86%
    02:00 +27°C° 0 mm 4 m/S 757 mmHg 85%
    03:00 +26°C° 0 mm 4 m/S 756 mmHg 85%
    04:00 +27°C° 0 mm 4 m/S 756 mmHg 84%
    05:00 +27°C° 0 mm 4 m/S 757 mmHg 83%
    06:00 +27°C° 0 mm 4 m/S 757 mmHg 81%
    07:00 +28°C° 0 mm 4 m/S 757 mmHg 75%
    08:00 +29°C° 0 mm 4 m/S 758 mmHg 68%
    09:00 +32°C° 0 mm 4 m/S 758 mmHg 61%
    10:00 +32°C° 0 mm 4 m/S 758 mmHg 59%
    11:00 +33°C° 0 mm 4 m/S 758 mmHg 56%
    12:00 +34°C° 0 mm 4 m/S 757 mmHg 53%
    13:00 +34°C° 0 mm 4 m/S 757 mmHg 55%
    14:00 +33°C° 0 mm 4 m/S 756 mmHg 57%
    15:00 +33°C° 0 mm 5 m/S 756 mmHg 59%
    16:00 +32°C° 0 mm 5 m/S 756 mmHg 63%
    17:00 +30°C° 0 mm 4 m/S 756 mmHg 68%
    18:00 +29°C° 0 mm 4 m/S 756 mmHg 72%
    19:00 +28°C° 0.4 mm 4 m/S 757 mmHg 75%
    20:00 +28°C° 0.4 mm 5 m/S 757 mmHg 78%
    21:00 +28°C° 0.4 mm 5 m/S 758 mmHg 81%
    22:00 +27°C° 0.8 mm 4 m/S 758 mmHg 83%
    23:00 +27°C° 0.8 mm 4 m/S 758 mmHg 85%

    28 Januar, Montag

    Zeit Temperatur Niederschläge Wind Luftdruck Luftfeuchtigkeit
    00:00 +27°C° 0.8 mm 4 m/S 757 mmHg 86%
    01:00 +26°C° 1.8 mm 4 m/S 757 mmHg 88%
    02:00 +26°C° 1.8 mm 4 m/S 757 mmHg 90%
    03:00 +26°C° 1.8 mm 4 m/S 756 mmHg 91%
    04:00 +26°C° 2.1 mm 4 m/S 756 mmHg 91%
    05:00 +26°C° 2.1 mm 4 m/S 757 mmHg 91%
    06:00 +26°C° 2.1 mm 4 m/S 757 mmHg 91%
    07:00 +27°C° 1.1 mm 4 m/S 758 mmHg 88%
    08:00 +28°C° 1.1 mm 4 m/S 758 mmHg 85%
    09:00 +28°C° 1.1 mm 4 m/S 758 mmHg 83%
    10:00 +29°C° 0.6 mm 5 m/S 758 mmHg 78%
    11:00 +30°C° 0.6 mm 5 m/S 758 mmHg 74%
    12:00 +32°C° 0.6 mm 5 m/S 757 mmHg 69%
    13:00 +32°C° 0 mm 5 m/S 757 mmHg 67%
    14:00 +33°C° 0 mm 5 m/S 756 mmHg 65%
    15:00 +33°C° 0 mm 5 m/S 756 mmHg 62%
    16:00 +32°C° 0.1 mm 5 m/S 756 mmHg 67%
    17:00 +30°C° 0.1 mm 5 m/S 756 mmHg 73%
    18:00 +29°C° 0.1 mm 5 m/S 756 mmHg 78%
    19:00 +28°C° 0.6 mm 4 m/S 757 mmHg 80%
    20:00 +28°C° 0.6 mm 4 m/S 757 mmHg 83%
    21:00 +27°C° 0.6 mm 4 m/S 758 mmHg 85%
    22:00 +27°C° 0.5 mm 4 m/S 757 mmHg 86%
    23:00 +27°C° 0.5 mm 3 m/S 757 mmHg 87%

    29 Januar, Dienstag

    Zeit Temperatur Niederschläge Wind Luftdruck Luftfeuchtigkeit
    00:00 +27°C° 0.5 mm 3 m/S 757 mmHg 88%
    01:00 +26°C° 0.4 mm 3 m/S 757 mmHg 89%
    02:00 +26°C° 0.4 mm 2 m/S 756 mmHg 89%
    03:00 +26°C° 0.4 mm 2 m/S 756 mmHg 90%
    04:00 +26°C° 1.2 mm 2 m/S 756 mmHg 90%
    05:00 +26°C° 1.2 mm 2 m/S 756 mmHg 90%
    06:00 +26°C° 1.2 mm 2 m/S 757 mmHg 90%
    07:00 +27°C° 0.4 mm 2 m/S 757 mmHg 85%
    08:00 +28°C° 0.4 mm 3 m/S 757 mmHg 80%
    09:00 +29°C° 0.4 mm 3 m/S 757 mmHg 75%
    10:00 +31°C° 0.1 mm 3 m/S 757 mmHg 69%
    11:00 +33°C° 0.1 mm 4 m/S 757 mmHg 64%
    12:00 +34°C° 0.1 mm 4 m/S 756 mmHg 58%
    13:00 +33°C° 0 mm 5 m/S 756 mmHg 59%
    14:00 +33°C° 0 mm 5 m/S 755 mmHg 61%
    15:00 +33°C° 0 mm 5 m/S 755 mmHg 63%
    16:00 +32°C° 0.1 mm 5 m/S 755 mmHg 68%
    17:00 +30°C° 0.1 mm 5 m/S 755 mmHg 73%
    18:00 +29°C° 0.1 mm 5 m/S 756 mmHg 79%
    19:00 +28°C° 0.1 mm 4 m/S 756 mmHg 80%
    20:00 +28°C° 0.1 mm 4 m/S 756 mmHg 82%
    21:00 +27°C° 0.1 mm 4 m/S 757 mmHg 84%
    22:00 +27°C° 0.1 mm 4 m/S 757 mmHg 85%
    23:00 +27°C° 0.1 mm 4 m/S 756 mmHg 85%
    Mehr zeigen